This demonstration page uses our WeatherBlox Daily Observations layout. Learn more.

38.89511, -77.03637

Hourly Observations for March 15, 2015

Temp ( °F °C ) Dew Point ( °F °C ) Humidity (%) Winds ( mph kmh ) Pressure ( in mb ) Visibility ( mi km ) Precip ( " mm )
12:52 am 00:52 Partly Cloudy 57 14 46 8 67 67 NNW 9 15 29.85 1011 10 16.09344 0 0
1:52 am 01:52 Mostly Clear 54 12 39 4 58 58 NW 10 17 29.88 1012 10 16.09344 0 0
2:52 am 02:52 Mostly Clear 52 11 39 4 62 62 NNW 12 19 29.88 1012 10 16.09344 0 0
3:52 am 03:52 Mostly Clear 48 9 37 3 66 66 NNW 8 13 29.88 1012 10 16.09344 0 0
4:52 am 04:52 Mostly Clear 48 9 37 3 66 66 N 5 7 29.88 1012 10 16.09344 0 0
5:52 am 05:52 Mostly Cloudy 48 9 37 3 66 66 Calm 29.88 1012 10 16.09344 0 0
6:52 am 06:52 Partly Cloudy 45 7 37 3 76 76 Calm 29.91 1013 10 16.09344 0 0
7:52 am 07:52 Cloudy 52 11 37 3 58 58 WNW 9 15 29.91 1013 10 16.09344 0 0
8:52 am 08:52 Mostly Cloudy 52 11 34 1 50 50 WNW 14 22 29.94 1014 10 16.09344 0 0
9:52 am 09:52 Mostly Cloudy 50 10 34 1 54 54 NW 13 20 29.97 1015 10 16.09344 0 0
10:52 am 10:52 Mostly Cloudy 52 11 32 0 47 47 WNW 16 26 30 1016 10 16.09344 0 0
11:52 am 11:52 Mostly Cloudy 52 11 32 0 47 47 NW 21 33 30 1016 10 16.09344 0 0
12:52 pm 12:52 Mostly Cloudy 54 12 32 0 44 44 NW 25 41 30 1016 10 16.09344 0 0
1:52 pm 13:52 Partly Cloudy 57 14 34 1 41 41 NW 23 37 29.97 1015 10 16.09344 0 0
2:52 pm 14:52 Partly Cloudy 57 14 34 1 41 41 NW 22 35 29.97 1015 10 16.09344 0 0
3:52 pm 15:52 Mostly Sunny 57 14 32 0 39 39 NW 17 28 29.97 1015 10 16.09344 0 0
4:52 pm 16:52 Mostly Sunny 57 14 32 0 39 39 NNW 22 35 29.97 1015 10 16.09344 0 0
5:52 pm 17:52 Partly Cloudy 55 13 30 -1 38 38 NNW 18 30 30 1016 10 16.09344 0 0
6:52 pm 18:52 Partly Cloudy 52 11 30 -1 44 44 NNW 13 20 30.03 1017 10 16.09344 0 0
7:52 pm 19:52 Mostly Clear 50 10 28 -2 43 43 NNW 13 20 30.06 1018 10 16.09344 0 0
8:52 pm 20:52 Clear 48 9 28 -2 46 46 N 12 19 30.09 1019 10 16.09344 0 0
9:52 pm 21:52 Clear 48 9 30 -1 50 50 N 10 17 30.12 1020 10 16.09344 0 0
10:52 pm 22:52 Clear 46 8 30 -1 53 53 NNW 12 19 30.12 1020 10 16.09344 0 0
11:52 pm 23:52 Mostly Clear 45 7 30 -1 57 57 N 7 11 30.12 1020 10 16.09344 0 0

Powered by AerisWeather